Location: A O Calhoun Middle School
(33.2198°N, 97.1397°W)
Time: 04:57:30
(UTC+00:00)

H-2A R/B - Pass Details

Date: 09 July 2022
Orbit: 576 x 652 km, 98.5° (Epoch: 17 August)

Event Time Altitude Azimuth Distance (km) Brightness Sun altitude
Rises 03:07:01 0° 5° (N) 2,961 6.1 -15.7°
Reaches altitude 10° 03:09:17 10° 360° (N) 2,054 5.3 -16.1°
Maximum altitude 03:13:34 47° 287° (WNW) 864 3.2 -16.8°
Drops below altitude 10° 03:17:52 10° 213° (SSW) 2,050 4.6 -17.4°
Sets 03:20:08 0° 208° (SSW) 2,955 5.4 -17.8°
